Wind_Speed
29 27 26 25 23 22 22 21 21 20 20 18 16 15 14 15 14 14 15 14 14 15 15 16 17 17 17 17 17 17 18 18 17 17 17 16 15 15 14 14 14 14 14 14
30 29 28 27 25 23 23 22 21 21 21 19 18 17 17 17 16 16 16 15 15 16 16 16 17 17 17 17 17 18 19 19 19 19 18 18 17 16 16 16 16 16 15 16
33 32 30 29 27 26 25 23 23 23 22 22 22 21 20 19 18 18 17 17 16 17 17 17 18 18 18 19 19 19 20 20 20 20 20 19 19 18 18 18 17 17 17 17
34 34 35 31 28 28 28 26 25 25 25 24 23 23 23 22 20 19 18 18 18 19 19 19 20 20 21 21 21 21 20 21 20 21 21 21 20 20 20 19 19 18 18 19
35 36 36 33 30 29 29 28 27 27 27 26 25 25 25 23 21 22 21 20 21 21 20 20 21 21 22 23 23 23 22 22 22 22 22 22 22 21 20 20 20 20 20 20
36 36 37 33 32 31 31 30 29 29 29 28 27 28 26 25 23 23 22 22 22 22 22 21 21 22 23 24 24 24 24 24 24 24 24 24 23 22 22 22 22 22 21 21
36 36 37 35 34 33 34 32 30 30 29 28 28 28 27 27 25 25 24 23 23 24 23 23 23 24 25 25 25 26 26 26 26 25 26 25 24 24 23 23 23 23 23 22
36 36 36 35 35 35 34 32 32 31 30 28 28 29 29 28 27 26 25 24 24 25 24 25 25 25 26 26 27 27 27 27 26 26 26 25 25 25 24 24 24 24 23 23
38 38 36 36 37 36 35 33 32 31 30 29 29 29 29 29 28 26 26 26 26 26 26 26 26 27 27 27 27 27 27 26 26 26 26 25 25 25 25 24 24 24 24 25
38 38 37 37 36 36 35 34 32 31 30 30 29 28 29 29 27 27 26 26 26 27 27 28 27 28 28 28 28 27 27 27 26 27 26 26 26 26 26 26 26 26 26 26
38 37 38 36 35 34 35 35 34 33 32 31 30 30 29 27 27 27 26 26 27 27 28 29 29 28 29 29 29 28 28 28 28 27 27 27 26 26 27 27 27 27 27 27
38 36 36 34 34 34 34 34 33 32 32 32 31 32 31 31 30 29 28 28 28 28 28 29 29 29 30 30 29 29 28 28 28 27 27 27 27 27 28 28 28 27 27 26
37 36 35 34 34 34 33 33 34 33 33 33 33 33 32 31 30 31 30 30 30 29 30 30 31 31 31 30 30 29 29 28 28 28 28 28 28 28 29 29 29 28 27 27
35 35 36 35 34 34 34 34 34 34 34 34 33 32 32 31 30 30 30 30 30 31 31 31 31 31 31 30 30 30 30 29 29 29 29 29 29 29 29 29 28 28 28 27
37 36 34 33 33 31 32 32 33 33 32 32 32 31 31 30 30 29 30 30 31 31 31 31 31 31 31 31 31 30 30 30 30 29 30 30 30 30 29 29 28 28 28 28
36 35 34 34 34 33 32 32 32 32 32 30 30 31 30 30 30 29 30 30 30 30 30 30 30 30 30 30 31 31 31 31 30 30 31 30 30 30 29 29 29 29 29 29
34 34 34 34 34 32 32 33 33 32 32 31 30 30 30 30 28 28 29 29 29 29 30 30 30 31 31 31 30 30 30 30 30 30 30 29 29 29 29 29 29 29 29 29
32 32 32 32 33 34 33 33 33 32 32 31 31 31 30 28 27 28 29 29 29 30 30 30 30 30 30 30 30 30 30 29 29 29 28 28 28 28 29 29 29 29 29 29
29 29 29 29 30 30 30 30 30 30 30 30 30 30 30 29 28 29 29 30 30 30 30 30 30 30 30 30 30 30 29 29 29 28 28 28 28 28 28 28 29 29 29 29
27 28 28 28 29 29 26 26 27 27 28 29 30 30 30 30 30 30 30 30 30 30 30 30 30 30 30 30 29 29 29 28 28 28 27 27 27 28 28 29 29 29 29 29
23 24 26 27 26 25 25 24 24 25 26 28 29 29 29 29 29 29 29 29 29 29 29 28 28 29 29 29 29 29 28 27 27 27 26 26 27 28 28 29 29 29 29 29
22 22 23 25 26 24 23 23 23 24 25 26 26 27 27 27 27 27 27 27 27 27 26 26 27 27 26 26 26 26 26 27 27 26 26 26 27 28 28 28 28 28 29 28
19 20 21 21 22 23 22 22 22 22 23 24 25 24 24 25 25 25 26 26 26 25 25 25 26 26 25 26 26 26 26 26 26 26 26 26 27 27 27 27 28 28 28 28
18 19 19 20 21 21 22 22 22 23 23 23 23 23 23 23 24 24 25 25 24 24 25 25 25 25 25 26 26 26 26 26 26 26 27 27 27 27 26 26 27 27 28 28
19 19 19 19 20 21 21 22 22 22 22 22 22 23 23 23 23 24 24 24 24 25 25 25 25 25 25 25 25 25 25 25 25 26 26 26 26 26 26 26 27 27 27 27
19 19 19 19 19 20 20 21 21 21 21 22 22 22 22 23 23 23 24 24 24 25 25 25 24 24 24 24 24 24 24 25 25 26 26 25 25 25 25 25 25 26 26 26
18 18 18 18 18 18 19 20 20 21 21 22 22 22 23 23 23 23 24 24 24 24 24 24 23 23 23 23 23 24 24 24 24 24 24 24 24 24 24 25 26 26 26 26
Wind_Direction
224 223 225 227 227 228 231 236 243 249 255 264 271 274 279 286 295 303 311 316 320 320 322 325 328 331 333 333 335 335 334 335 336 334 333 331 329 325 320 317 314 312 309 305
223 224 225 226 226 228 230 232 238 245 251 257 264 267 276 282 288 296 301 307 313 315 315 318 321 323 325 326 327 328 329 329 330 328 328 327 326 326 323 318 314 309 309 311
225 224 228 226 226 228 230 234 240 245 251 254 262 267 271 277 282 289 295 300 308 311 310 312 314 315 317 319 319 320 321 322 322 322 322 322 321 320 319 317 312 310 309 309
229 227 230 227 227 231 231 234 240 246 250 254 258 265 272 276 282 287 292 299 305 306 306 307 309 310 312 314 313 313 316 317 317 316 316 316 317 315 314 315 312 308 307 306
231 230 230 226 225 229 232 234 238 243 248 252 258 263 269 274 278 285 289 294 299 301 303 303 304 306 308 310 313 312 312 313 313 313 312 312 311 310 310 310 309 308 307 305
232 232 230 227 225 228 232 235 238 243 247 252 259 264 270 273 276 281 284 289 293 297 300 300 301 303 305 306 308 309 309 310 311 310 309 308 307 306 305 306 305 305 305 304
231 232 231 228 228 230 234 237 240 244 248 252 258 265 270 273 274 277 281 284 289 292 296 298 300 302 304 305 305 307 307 307 309 308 308 306 305 304 303 302 303 303 303 302
232 232 231 229 230 233 238 240 242 245 248 251 256 261 266 271 272 275 278 282 285 288 291 295 298 300 302 303 304 305 305 305 306 305 306 305 304 303 302 302 302 302 300 300
232 233 233 232 232 233 236 240 243 248 252 252 255 259 264 268 268 271 276 279 283 286 289 293 296 298 300 301 302 304 304 304 304 304 304 303 303 302 302 303 303 301 300 301
233 234 235 234 234 234 237 241 244 248 251 252 255 258 261 264 266 271 277 279 282 285 288 291 293 295 297 300 301 302 303 302 303 302 301 301 301 301 301 301 302 301 300 301
233 234 234 233 234 235 237 239 243 247 249 253 256 259 262 266 269 272 278 281 282 284 287 289 292 294 297 298 300 301 302 301 301 300 299 300 301 301 301 301 301 301 301 300
232 234 234 234 234 237 239 240 242 245 248 251 256 260 264 267 270 274 278 280 282 285 286 289 292 294 296 298 299 300 301 301 301 301 300 300 300 301 301 301 301 300 300 300
231 232 233 234 236 238 240 242 244 247 251 254 257 260 263 266 269 272 276 279 281 284 286 289 291 294 295 295 297 299 300 300 301 301 300 299 300 300 301 301 300 300 300 300
232 232 232 233 235 239 242 244 247 249 251 254 257 260 262 264 268 272 275 277 280 283 286 289 290 291 292 293 295 296 297 299 299 299 299 299 299 299 299 301 301 300 299 300
232 232 231 233 236 239 243 245 247 248 253 256 258 260 262 265 268 272 274 276 279 283 285 287 289 290 291 293 294 295 296 297 297 297 297 297 298 297 298 300 301 300 299 301
233 232 235 236 238 240 242 245 248 249 252 256 258 260 263 266 269 271 274 276 278 281 284 286 288 289 291 293 295 295 296 296 296 297 297 297 297 298 299 300 300 300 299 300
234 235 235 236 237 241 243 244 247 249 253 256 258 259 262 265 267 270 274 277 280 282 284 286 287 289 291 293 294 295 296 296 297 297 297 298 299 299 299 300 299 299 300 301
236 236 236 237 238 242 244 245 246 249 252 255 257 260 262 265 268 271 276 279 281 282 284 285 287 289 289 291 293 294 295 296 297 298 298 298 298 299 299 299 300 300 300 301
239 238 240 239 240 241 244 243 243 246 250 253 256 260 264 267 270 274 277 279 281 281 282 283 285 287 289 291 293 294 295 295 296 297 297 297 297 298 299 299 300 300 301 301
241 242 242 241 240 242 245 244 245 248 252 255 259 261 265 267 270 274 276 278 280 282 283 284 286 287 289 291 293 294 293 295 296 297 296 295 296 298 299 300 301 302 302 302
241 243 243 242 241 243 245 246 248 252 254 256 259 262 265 268 271 274 276 278 280 282 283 285 286 287 289 291 292 292 292 293 295 295 295 296 297 298 300 301 301 301 302 302
242 243 243 243 243 246 247 249 253 256 257 257 258 263 267 269 271 274 277 279 282 283 284 287 288 288 290 292 293 292 292 293 294 295 296 297 298 299 300 301 302 302 303 303
241 242 244 245 246 247 250 253 256 259 259 260 262 265 268 270 273 274 276 280 283 284 286 288 289 289 290 291 292 293 293 293 294 295 295 296 297 298 299 300 302 303 303 304
244 241 242 243 246 250 251 254 258 261 263 264 266 268 270 271 273 274 277 280 282 284 286 288 288 289 290 291 292 293 293 293 293 295 295 296 297 298 298 299 300 302 303 304
244 242 240 240 244 246 249 253 257 260 263 266 268 269 270 272 273 274 277 279 282 284 286 288 290 290 290 291 292 292 293 294 295 295 296 297 298 298 299 300 301 302 303 304
243 243 244 245 246 246 249 252 256 259 262 265 268 270 272 273 274 276 279 281 283 286 287 288 289 290 290 291 291 292 293 295 297 297 297 297 298 299 300 301 302 304 306 306
243 245 247 248 249 251 252 255 258 262 265 268 271 273 275 276 277 278 280 282 284 286 287 288 289 290 290 291 291 292 294 295 296 297 297 297 298 299 301 303 305 307 308 308
Height
5895 5899 5902 5904 5907 5909 5910 5912 5914 5915 5916 5917 5918 5919 5919 5919 5919 5918 5917 5916 5914 5912 5910 5907 5905 5903 5900 5898 5895 5893 5890 5888 5885 5883 5880 5878 5875 5872 5870 5868 5866 5864 5862 5860
5890 5893 5896 5898 5901 5904 5906 5907 5909 5910 5911 5913 5914 5915 5915 5915 5915 5915 5914 5913 5911 5909 5907 5905 5902 5900 5898 5895 5893 5890 5888 5885 5883 5880 5877 5875 5872 5869 5867 5865 5863 5861 5859 5857
5884 5887 5889 5893 5897 5899 5901 5902 5904 5905 5908 5908 5909 5910 5911 5911 5911 5911 5910 5909 5907 5905 5904 5901 5899 5897 5894 5892 5890 5887 5885 5882 5879 5877 5874 5871 5869 5866 5863 5861 5859 5857 5855 5852
5876 5881 5882 5890 5892 5893 5895 5897 5899 5900 5902 5903 5905 5906 5906 5906 5906 5906 5905 5904 5903 5902 5900 5898 5896 5894 5891 5888 5885 5882 5880 5878 5875 5872 5870 5867 5865 5862 5859 5857 5854 5852 5850 5848
5869 5872 5876 5882 5885 5887 5889 5891 5893 5894 5896 5898 5899 5900 5901 5901 5901 5901 5900 5899 5899 5897 5896 5894 5892 5889 5887 5884 5881 5878 5875 5873 5870 5868 5865 5863 5860 5858 5855 5852 5850 5848 5845 5843
5861 5864 5868 5875 5879 5881 5883 5884 5887 5889 5890 5892 5894 5895 5896 5896 5896 5896 5895 5894 5894 5892 5891 5889 5887 5885 5882 5880 5877 5874 5871 5868 5865 5863 5860 5857 5855 5852 5850 5847 5845 5843 5840 5838
5853 5856 5861 5867 5871 5874 5877 5879 5882 5883 5885 5887 5888 5890 5891 5890 5890 5890 5889 5889 5888 5887 5885 5883 5881 5879 5877 5874 5871 5868 5865 5863 5860 5857 5854 5851 5849 5847 5844 5842 5839 5837 5835 5832
5846 5849 5855 5860 5863 5867 5870 5873 5875 5876 5878 5880 5882 5882 5883 5883 5884 5883 5883 5883 5882 5881 5879 5877 5875 5873 5871 5868 5866 5862 5859 5856 5853 5851 5848 5846 5843 5840 5838 5835 5833 5830 5828 5826
5839 5844 5848 5851 5855 5859 5862 5866 5868 5870 5872 5874 5875 5875 5876 5876 5876 5876 5877 5876 5875 5874 5872 5871 5869 5866 5864 5862 5859 5856 5853 5850 5847 5845 5842 5839 5837 5834 5832 5829 5827 5825 5822 5820
5831 5835 5839 5843 5847 5851 5855 5858 5861 5863 5865 5867 5868 5868 5869 5869 5868 5869 5869 5868 5868 5867 5865 5864 5862 5860 5858 5855 5852 5849 5847 5844 5840 5838 5835 5833 5830 5828 5826 5823 5821 5818 5816 5813
5823 5827 5831 5835 5839 5844 5847 5850 5853 5855 5858 5859 5861 5861 5861 5861 5862 5862 5862 5861 5861 5860 5858 5857 5855 5853 5851 5848 5846 5843 5840 5837 5834 5831 5829 5826 5824 5821 5819 5816 5814 5811 5808 5806
5815 5820 5823 5828 5832 5836 5839 5842 5845 5847 5850 5852 5853 5854 5854 5854 5855 5855 5855 5854 5853 5852 5851 5850 5848 5846 5844 5841 5839 5836 5833 5830 5827 5825 5822 5819 5817 5814 5812 5809 5807 5804 5801 5799
5809 5812 5816 5820 5825 5829 5831 5834 5836 5839 5842 5844 5845 5846 5846 5847 5847 5848 5848 5847 5846 5845 5844 5842 5840 5838 5836 5834 5831 5829 5826 5823 5821 5818 5815 5812 5810 5807 5804 5802 5799 5796 5794 5791
5800 5804 5808 5812 5816 5820 5823 5826 5828 5831 5833 5835 5836 5836 5836 5837 5839 5839 5839 5839 5838 5837 5835 5834 5832 5830 5828 5826 5823 5821 5818 5816 5813 5810 5808 5805 5802 5799 5797 5794 5791 5788 5786 5783
5791 5795 5799 5804 5808 5812 5814 5817 5819 5822 5824 5825 5826 5827 5828 5829 5830 5831 5831 5830 5830 5828 5827 5825 5824 5822 5820 5817 5815 5813 5810 5807 5805 5802 5800 5797 5794 5791 5789 5786 5783 5780 5778 5775
5784 5787 5791 5796 5799 5802 5806 5809 5811 5813 5816 5817 5818 5819 5820 5821 5821 5822 5822 5822 5821 5820 5819 5817 5815 5813 5811 5809 5807 5804 5802 5799 5796 5794 5791 5788 5786 5783 5780 5778 5775 5772 5769 5767
5776 5780 5783 5788 5790 5793 5796 5800 5803 5805 5807 5809 5810 5811 5812 5813 5813 5813 5813 5813 5812 5811 5810 5809 5807 5805 5803 5801 5798 5796 5793 5791 5788 5785 5783 5780 5777 5775 5772 5770 5767 5764 5761 5758
5768 5772 5775 5778 5781 5785 5788 5790 5793 5796 5798 5800 5801 5803 5803 5803 5804 5805 5805 5804 5804 5803 5801 5800 5798 5796 5794 5792 5790 5788 5785 5782 5780 5777 5775 5772 5769 5767 5764 5761 5758 5756 5753 5750
5762 5765 5768 5770 5773 5777 5779 5780 5783 5786 5788 5790 5792 5794 5795 5796 5796 5796 5796 5796 5795 5794 5793 5791 5789 5788 5786 5784 5782 5779 5777 5775 5772 5770 5767 5764 5761 5759 5756 5753 5751 5748 5745 5742
5757 5760 5762 5764 5767 5769 5771 5773 5775 5778 5780 5782 5784 5786 5787 5787 5788 5787 5787 5787 5786 5785 5784 5782 5781 5779 5777 5775 5773 5771 5769 5767 5764 5762 5759 5756 5753 5751 5748 5746 5743 5739 5736 5733
5751 5753 5755 5758 5760 5763 5764 5766 5769 5771 5772 5774 5777 5778 5778 5779 5779 5779 5779 5778 5778 5776 5775 5773 5772 5770 5769 5767 5765 5763 5761 5759 5756 5754 5751 5748 5746 5743 5740 5737 5734 5731 5728 5725
5746 5748 5750 5753 5755 5757 5759 5761 5763 5764 5766 5768 5769 5770 5770 5771 5771 5771 5770 5770 5769 5768 5767 5765 5764 5762 5760 5758 5756 5754 5752 5750 5748 5746 5744 5741 5738 5735 5732 5729 5726 5723 5720 5716
5741 5743 5745 5747 5749 5751 5753 5755 5757 5758 5760 5761 5762 5763 5763 5763 5763 5763 5763 5762 5761 5760 5759 5757 5756 5754 5752 5750 5749 5747 5745 5743 5740 5738 5736 5733 5730 5727 5724 5721 5718 5715 5712 5708
5737 5739 5741 5742 5744 5746 5748 5750 5751 5753 5754 5754 5755 5755 5755 5756 5756 5756 5755 5754 5754 5752 5751 5750 5748 5746 5744 5743 5741 5739 5737 5735 5732 5730 5728 5725 5723 5720 5717 5714 5711 5707 5704 5701
5732 5734 5736 5737 5739 5740 5742 5744 5745 5746 5747 5747 5747 5748 5748 5748 5748 5748 5747 5747 5746 5744 5743 5742 5740 5738 5736 5735 5733 5731 5729 5726 5724 5722 5720 5717 5715 5712 5709 5706 5703 5699 5696 5693
5727 5729 5731 5732 5734 5735 5737 5738 5739 5739 5740 5741 5741 5741 5741 5741 5741 5740 5740 5739 5738 5737 5735 5734 5732 5731 5729 5727 5725 5723 5721 5719 5717 5714 5712 5709 5707 5704 5701 5698 5695 5692 5688 5685
5722 5724 5726 5727 5728 5730 5731 5732 5733 5733 5734 5734 5735 5735 5734 5734 5733 5733 5732 5731 5730 5729 5727 5726 5725 5723 5721 5719 5718 5716 5713 5711 5709 5707 5704 5702 5699 5697 5694 5691 5687 5684 5681 5678